When you browse on this site, cookies collect data to enhance your experience and personalize the content and advertising you see.
Visit our Privacy Policy to learn more. By continuing to use the site, you agree to this use of cookies and data.
  • In Czech Republic
  • List of Countries
  • For 7 days
  • Water Temperature
  • Satellite Maps
  • Weather Map
  • Weather Widgets
  • user-avatar
    Login

    Hourly Weather Stepanakert

    Today, 17 December, Monday

    Time Temperature Precipitation Wind Pressure Humidity
    00:00 +3°C° 0 mm 2 mps 697 mmHg 78%
    01:00 +3°C° 0 mm 2 mps 697 mmHg 78%
    02:00 +3°C° 0 mm 2 mps 697 mmHg 79%
    03:00 +3°C° 0 mm 2 mps 697 mmHg 79%
    04:00 +4°C° 0 mm 1 mps 697 mmHg 80%
    05:00 +3°C° 0 mm 1 mps 697 mmHg 80%
    06:00 +3°C° 0 mm 1 mps 697 mmHg 80%
    07:00 +4°C° 0 mm 1 mps 696 mmHg 78%
    08:00 +4°C° 0 mm 1 mps 696 mmHg 76%
    09:00 +4°C° 0 mm 2 mps 696 mmHg 74%
    10:00 +4°C° 0 mm 2 mps 696 mmHg 73%
    11:00 +5°C° 0 mm 2 mps 696 mmHg 72%
    12:00 +5°C° 0 mm 2 mps 696 mmHg 71%
    13:00 +5°C° 0 mm 2 mps 695 mmHg 73%
    14:00 +5°C° 0 mm 2 mps 695 mmHg 75%
    15:00 +5°C° 0 mm 2 mps 695 mmHg 78%
    16:00 +4°C° 0.1 mm 2 mps 695 mmHg 81%
    17:00 +4°C° 0.1 mm 2 mps 695 mmHg 83%
    18:00 +3°C° 0.1 mm 2 mps 695 mmHg 86%
    19:00 +3°C° 0.2 mm 2 mps 695 mmHg 87%
    20:00 +4°C° 0.2 mm 1 mps 695 mmHg 89%
    21:00 +4°C° 0.2 mm 1 mps 695 mmHg 90%
    22:00 +4°C° 0.2 mm 1 mps 695 mmHg 90%
    23:00 +4°C° 0.2 mm 1 mps 694 mmHg 90%

    Tomorrow, 18 December, Tuesday

    Time Temperature Precipitation Wind Pressure Humidity
    00:00 +4°C° 0.2 mm 1 mps 694 mmHg 90%
    01:00 +4°C° 0.4 mm 1 mps 694 mmHg 90%
    02:00 +4°C° 0.4 mm 1 mps 694 mmHg 91%
    03:00 +4°C° 0.4 mm 1 mps 694 mmHg 91%
    04:00 +4°C° 0.5 mm 1 mps 694 mmHg 91%
    05:00 +4°C° 0.5 mm 1 mps 694 mmHg 91%
    06:00 +4°C° 0.5 mm 1 mps 694 mmHg 91%
    07:00 +4°C° 0.1 mm 1 mps 695 mmHg 90%
    08:00 +4°C° 0.1 mm 1 mps 695 mmHg 88%
    09:00 +5°C° 0.1 mm 1 mps 695 mmHg 87%
    10:00 +5°C° 0.1 mm 1 mps 695 mmHg 85%
    11:00 +5°C° 0.1 mm 2 mps 695 mmHg 83%
    12:00 +5°C° 0.1 mm 2 mps 695 mmHg 81%
    13:00 +5°C° 0 mm 2 mps 695 mmHg 82%
    14:00 +5°C° 0 mm 2 mps 695 mmHg 83%
    15:00 +5°C° 0 mm 2 mps 695 mmHg 84%
    16:00 +4°C° 0 mm 2 mps 695 mmHg 86%
    17:00 +5°C° 0 mm 1 mps 696 mmHg 88%
    18:00 +4°C° 0 mm 1 mps 696 mmHg 91%
    19:00 +4°C° 0 mm 1 mps 696 mmHg 90%
    20:00 +4°C° 0 mm 1 mps 696 mmHg 90%
    21:00 +4°C° 0 mm 1 mps 697 mmHg 90%
    22:00 +4°C° 0 mm 1 mps 697 mmHg 89%
    23:00 +3°C° 0 mm 1 mps 697 mmHg 89%

    Day after tomorrow, 19 December, Wednesday

    Time Temperature Precipitation Wind Pressure Humidity
    00:00 +3°C° 0 mm 1 mps 697 mmHg 89%
    01:00 +3°C° 0 mm 1 mps 697 mmHg 89%
    02:00 +3°C° 0 mm 1 mps 697 mmHg 88%
    03:00 +3°C° 0 mm 1 mps 697 mmHg 88%
    04:00 +3°C° 0 mm 1 mps 697 mmHg 87%
    05:00 +3°C° 0 mm 1 mps 697 mmHg 87%
    06:00 +3°C° 0 mm 1 mps 697 mmHg 87%
    07:00 +4°C° 0 mm 1 mps 697 mmHg 84%
    08:00 +4°C° 0 mm 1 mps 698 mmHg 81%
    09:00 +5°C° 0 mm 1 mps 698 mmHg 79%
    10:00 +6°C° 0 mm 1 mps 698 mmHg 76%
    11:00 +7°C° 0 mm 1 mps 698 mmHg 74%
    12:00 +6°C° 0 mm 2 mps 697 mmHg 72%
    13:00 +6°C° 0 mm 2 mps 697 mmHg 73%
    14:00 +6°C° 0 mm 2 mps 697 mmHg 74%
    15:00 +6°C° 0 mm 2 mps 696 mmHg 75%
    16:00 +6°C° 0 mm 1 mps 696 mmHg 79%
    17:00 +6°C° 0 mm 1 mps 696 mmHg 82%
    18:00 +5°C° 0 mm 1 mps 696 mmHg 86%
    19:00 +5°C° 0 mm 1 mps 696 mmHg 85%
    20:00 +4°C° 0 mm 1 mps 696 mmHg 85%
    21:00 +4°C° 0 mm 1 mps 696 mmHg 85%
    22:00 +4°C° 0 mm 1 mps 696 mmHg 85%
    23:00 +4°C° 0 mm 1 mps 696 mmHg 85%

    20 December, Thursday

    Time Temperature Precipitation Wind Pressure Humidity
    00:00 +4°C° 0 mm 1 mps 696 mmHg 85%
    01:00 +4°C° 0 mm 1 mps 695 mmHg 85%
    02:00 +4°C° 0 mm 1 mps 695 mmHg 86%
    03:00 +4°C° 0 mm 1 mps 695 mmHg 86%
    04:00 +4°C° 0 mm 1 mps 695 mmHg 86%
    05:00 +4°C° 0 mm 1 mps 694 mmHg 85%
    06:00 +4°C° 0 mm 1 mps 694 mmHg 85%
    07:00 +4°C° 0 mm 1 mps 694 mmHg 83%
    08:00 +5°C° 0 mm 1 mps 694 mmHg 81%
    09:00 +5°C° 0 mm 1 mps 694 mmHg 79%
    10:00 +6°C° 0 mm 1 mps 694 mmHg 76%
    11:00 +7°C° 0 mm 1 mps 694 mmHg 73%
    12:00 +8°C° 0 mm 1 mps 694 mmHg 70%
    13:00 +8°C° 0 mm 1 mps 693 mmHg 70%
    14:00 +8°C° 0 mm 1 mps 693 mmHg 71%
    15:00 +7°C° 0 mm 2 mps 693 mmHg 72%
    16:00 +7°C° 0 mm 1 mps 693 mmHg 76%
    17:00 +6°C° 0 mm 1 mps 693 mmHg 79%
    18:00 +4°C° 0 mm 0 mps 693 mmHg 83%
    19:00 +4°C° 0 mm 0 mps 693 mmHg 83%
    20:00 +4°C° 0 mm 0 mps 694 mmHg 82%
    21:00 +4°C° 0 mm 0 mps 694 mmHg 82%
    22:00 +4°C° 0 mm 0 mps 694 mmHg 81%
    23:00 +5°C° 0 mm 1 mps 694 mmHg 80%

    21 December, Friday

    Time Temperature Precipitation Wind Pressure Humidity
    00:00 +5°C° 0 mm 1 mps 694 mmHg 79%
    01:00 +5°C° 0.1 mm 1 mps 694 mmHg 78%
    02:00 +5°C° 0.1 mm 1 mps 694 mmHg 77%
    03:00 +5°C° 0.1 mm 1 mps 694 mmHg 77%
    04:00 +5°C° 0.1 mm 1 mps 694 mmHg 77%
    05:00 +4°C° 0.1 mm 0 mps 694 mmHg 78%
    06:00 +4°C° 0.1 mm 0 mps 694 mmHg 78%
    07:00 +4°C° 0.1 mm 0 mps 695 mmHg 76%
    08:00 +5°C° 0.1 mm 0 mps 695 mmHg 73%
    09:00 +6°C° 0.1 mm 0 mps 696 mmHg 71%
    10:00 +7°C° 0.1 mm 1 mps 696 mmHg 68%
    11:00 +8°C° 0.1 mm 1 mps 695 mmHg 65%
    12:00 +9°C° 0.1 mm 1 mps 695 mmHg 62%
    13:00 +9°C° 0 mm 1 mps 695 mmHg 63%
    14:00 +9°C° 0 mm 1 mps 695 mmHg 63%
    15:00 +9°C° 0 mm 1 mps 695 mmHg 64%
    16:00 +8°C° 0 mm 1 mps 695 mmHg 69%
    17:00 +7°C° 0 mm 1 mps 695 mmHg 74%
    18:00 +6°C° 0 mm 1 mps 695 mmHg 79%
    19:00 +5°C° 0 mm 1 mps 695 mmHg 80%
    20:00 +4°C° 0 mm 0 mps 695 mmHg 80%
    21:00 +4°C° 0 mm 0 mps 695 mmHg 80%
    22:00 +4°C° 0 mm 0 mps 695 mmHg 81%
    23:00 +3°C° 0 mm 0 mps 695 mmHg 82%

    22 December, Saturday

    Time Temperature Precipitation Wind Pressure Humidity
    00:00 +3°C° 0 mm 0 mps 695 mmHg 82%
    01:00 +4°C° 0 mm 1 mps 695 mmHg 82%
    02:00 +4°C° 0 mm 1 mps 695 mmHg 82%
    03:00 +3°C° 0 mm 1 mps 695 mmHg 82%
    04:00 +3°C° 0 mm 1 mps 694 mmHg 81%
    05:00 +3°C° 0 mm 1 mps 694 mmHg 80%
    06:00 +3°C° 0 mm 1 mps 694 mmHg 79%
    07:00 +4°C° 0 mm 1 mps 694 mmHg 76%
    08:00 +4°C° 0 mm 1 mps 695 mmHg 72%
    09:00 +4°C° 0 mm 0 mps 695 mmHg 69%
    10:00 +6°C° 0 mm 1 mps 694 mmHg 68%
    11:00 +7°C° 0 mm 1 mps 694 mmHg 66%
    12:00 +7°C° 0 mm 2 mps 693 mmHg 65%
    13:00 +6°C° 0 mm 2 mps 693 mmHg 67%
    14:00 +6°C° 0 mm 2 mps 692 mmHg 69%
    15:00 +6°C° 0 mm 2 mps 692 mmHg 71%
    16:00 +6°C° 0 mm 1 mps 692 mmHg 75%
    17:00 +5°C° 0 mm 1 mps 692 mmHg 80%
    18:00 +5°C° 0 mm 1 mps 691 mmHg 84%
    19:00 +4°C° 0 mm 1 mps 691 mmHg 83%
    20:00 +4°C° 0 mm 1 mps 691 mmHg 82%
    21:00 +4°C° 0 mm 1 mps 691 mmHg 82%
    22:00 +4°C° 0 mm 1 mps 691 mmHg 81%
    23:00 +4°C° 0 mm 1 mps 691 mmHg 80%
    Show more